STARLINK AB (44260 NORAD) Tracking and Keplerian Element Data

This shows tracking and keplerian element data for the satellite.

Feedback or suggestion? Click here.




ElementValue
Catalog44260
NameSTARLINK AB
Epoch Orbit129
Epoch Day157.9924537
Epoch Year2019
RAAN109.7412
Inclination53.0001
Eccentricity0.0006821
Argument of Perigee81.1213
Mean Anonmoly255.2409
Mean Motion15.39387046
Decay Rate0.01269439
L11 44260U 19029AB 19157.99245370 .01269439 00000-0 29305-1 0 9993
L22 44260 53.0001 109.7412 0006821 81.1213 255.2409 15.39387046 1299

Live tracking and technical data element details for STARLINK AB (NORAD 44260). STARLINK AB can be tracked NOW for your location showing map with azimuth and elevation plus other details from your city location.

Track the satellite on the map from your city or location and see movement details for azimuth, elevation, latitude, longitude, range, height, and movement on the map or in text.







IsCatalogInMostPopularTable: catalog: 44260, numindb: 33
Update: records affected: 1



GetName: 44260 STARLINK AB

Hit Count: updated at: Sun, 21 Jul 2019 21:47:28 GMT